IRIDIUM 176

Last updated on Sun Jun 21 2026 00:03:14 GMT+0000 (Coordinated Universal Time)

1 43923U 19002B 26171.42134867 .00000578 00000+0 87686-4 0 9993 2 43923 86.6092 352.1881 0002328 93.4267 266.7217 14.72270591399727
UTC large
Height (km)
Speed (km/s)
/
Latitude / Longitude
Inclination (degrees)
Orbital Period (minutes)
Azimuth
Elevation
Range (km)
Doppler Factor

Next 0 passes for location: London (51.5072 / 0.1276)

No passes found over London.
IRIDIUM 176